Location: Anan
(43.3550°N, 0.8171°E)
Time: 16:12:06
(UTC+00:00)

Cosmos 372 Rocket - Pass Details

Date: 14 May 2026
Orbit: 734 x 761 km, 74.1° (Epoch: 10 June)

Event Time Altitude Azimuth Distance (km) Brightness Sun altitude
Rises 22:40:21 0° 342° (NNW) 3,188 8.6 -25.6°
Reaches altitude 10° 22:42:45 10° 345° (NNW) 2,257 7.5 -25.8°
Maximum altitude 22:47:48 64° 67° (ENE) 818 4.0 -26.0°
Enters shadow 22:47:54 64° 74° (ENE) 819 4.0 -26.1°
